Date String (YYYY-MM-DD hh:mm:ss) UTC,Instrument flags,absolute air pressure of the measurement (hPa),sample flow rate (lpm),inlet stack bypass flow (lpm),air temperature of the measurement (°C),ambient temperature measured by the external sensor (°C),aerosol sample conditioner tube jacket temperature (°C),OPC LED temperature (°C),internal box temperature (°C),relative humidity of the measurement (%),span deviation,mass concentration of particles derived from Lorenz-Mie calculation of OPC scattering (μg/m³),mass concentration of particles derived from Lorenz-Mie calculation of OPC scattering (μg/m³),mass concentration of particles derived from Lorenz-Mie calculation of OPC scattering (μg/m³)
DateTimeUTC,F1_M11,P_M11,Q1_M11,Q2_M11,T1_M11,T2_M11,T3_M11,T4_M11,T5_M11,U1_M11,ZSPAN_M11,X2_M11,X0_M11,X1_M11
2024-06-04 02:00:00,SystemResetWarning,0820.4,5.00,000.00,029.3,028.4,000.0,037.5,031.1,013.8,0000.0,0004.39,0014.09,0003.33
2024-06-04 02:01:00,SystemResetWarning,0820.4,4.99,000.00,029.4,028.6,000.0,037.6,031.2,013.8,0000.0,0004.35,0013.49,0003.32
2024-06-04 02:02:00,SystemResetWarning,0820.3,4.99,000.00,029.5,028.8,000.0,037.6,031.3,013.7,0000.0,0004.36,0013.35,0003.31
2024-06-04 02:03:00,SystemResetWarning,0820.4,5.01,000.00,029.5,028.9,000.0,037.6,031.3,013.8,0000.0,0004.39,0012.14,0003.31
2024-06-04 02:04:00,SystemResetWarning,0820.7,5.01,000.00,029.6,029.1,000.0,037.7,031.4,013.7,0000.0,0004.39,0011.58,0003.31
2024-06-04 02:05:00,SystemResetWarning,0820.6,5.00,000.00,029.7,029.2,000.0,037.7,031.5,013.8,0000.0,0004.41,0011.72,0003.32
2024-06-04 02:06:00,SystemResetWarning,0820.7,5.00,000.00,029.7,029.3,000.0,037.7,031.6,013.8,0000.0,0004.45,0011.50,0003.32
2024-06-04 02:07:00,SystemResetWarning,0821.0,5.00,000.00,029.8,029.4,000.0,037.8,031.6,013.8,0000.0,0004.46,0011.40,0003.33
2024-06-04 02:08:00,SystemResetWarning,0820.6,4.98,000.00,029.8,028.8,000.0,037.9,031.3,013.8,0000.0,0004.49,0011.24,0003.34
2024-06-04 02:09:00,SystemResetWarning,0820.6,5.02,000.00,029.5,026.7,000.0,037.9,030.4,014.1,0000.0,0004.44,0011.61,0003.33
2024-06-04 02:10:00,SystemResetWarning,0820.5,5.00,000.00,029.3,026.7,000.0,037.9,030.2,014.1,0000.0,0004.49,0011.64,0003.32
2024-06-04 02:11:00,SystemResetWarning,0820.6,4.98,000.00,029.2,027.0,000.0,037.8,030.4,014.3,0000.0,0004.42,0011.49,0003.31
2024-06-04 02:12:00,SystemResetWarning,0820.6,5.00,000.00,029.2,027.4,000.0,037.7,030.7,014.4,0000.0,0004.42,0012.21,0003.31
2024-06-04 02:13:00,SystemResetWarning,0820.8,5.01,000.00,029.3,027.7,000.0,037.7,030.8,014.3,0000.0,0004.46,0012.09,0003.33
2024-06-04 02:14:00,SystemResetWarning,0820.9,5.01,000.00,029.3,028.1,000.0,037.7,031.0,014.3,0000.0,0004.47,0012.16,0003.33
2024-06-04 02:15:00,SystemResetWarning,0820.7,5.00,000.00,029.4,028.3,000.0,037.7,031.1,014.4,0000.0,0004.44,0012.35,0003.33
2024-06-04 02:16:00,SystemResetWarning,0820.7,5.00,000.00,029.5,028.5,000.0,037.7,031.2,014.3,0000.0,0004.43,0012.41,0003.32
2024-06-04 02:17:00,SystemResetWarning,0820.5,5.00,000.00,029.5,028.7,000.0,037.7,031.3,014.3,0000.0,0004.39,0011.72,0003.31
2024-06-04 02:18:00,SystemResetWarning,0820.6,5.00,000.00,029.6,028.9,000.0,037.7,031.3,014.4,0000.0,0004.39,0012.61,0003.31
2024-06-04 02:19:00,SystemResetWarning,0820.6,5.00,000.00,029.6,029.0,000.0,037.7,031.4,014.3,0000.0,0004.43,0012.85,0003.32
2024-06-04 02:20:00,SystemResetWarning,0820.6,5.00,000.00,029.7,029.2,000.0,037.8,031.5,014.3,0000.0,0004.48,0012.32,0003.33
2024-06-04 02:21:00,SystemResetWarning,0820.6,4.99,000.00,029.8,029.3,000.0,037.8,031.6,014.4,0000.0,0004.45,0012.78,0003.33
2024-06-04 02:22:00,SystemResetWarning,0820.6,5.00,000.00,029.8,029.4,000.0,037.8,031.7,014.5,0000.0,0004.47,0013.22,0003.34
2024-06-04 02:23:00,SystemResetWarning,0820.6,5.00,000.00,029.9,029.4,000.0,037.9,031.6,014.6,0000.0,0004.48,0012.59,0003.35
2024-06-04 02:24:00,SystemResetWarning,0820.6,5.00,000.00,029.7,027.5,000.0,037.9,030.8,014.8,0000.0,0004.45,0012.79,0003.34
2024-06-04 02:25:00,SystemResetWarning,0820.5,5.01,000.00,029.4,026.4,000.0,038.0,030.2,015.1,0000.0,0004.41,0013.02,0003.34
2024-06-04 02:26:00,SystemResetWarning,0820.6,5.01,000.00,029.3,026.8,000.0,037.9,030.3,015.2,0000.0,0004.43,0013.30,0003.34
2024-06-04 02:27:00,SystemResetWarning,0820.6,5.00,000.00,029.2,027.1,000.0,037.8,030.6,015.3,0000.0,0004.43,0013.30,0003.33
2024-06-04 02:28:00,SystemResetWarning,0820.6,4.99,000.00,029.3,027.5,000.0,037.8,030.8,015.2,0000.0,0004.39,0013.15,0003.34
2024-06-04 02:29:00,SystemResetWarning,0820.7,5.01,000.00,029.3,027.9,000.0,037.7,030.9,015.1,0000.0,0004.37,0011.93,0003.34
2024-06-04 02:30:00,SystemResetWarning,0820.7,5.00,000.00,029.4,028.1,000.0,037.7,031.0,015.1,0000.0,0004.33,0011.46,0003.32
2024-06-04 02:31:00,SystemResetWarning,0820.8,4.99,000.00,029.4,028.4,000.0,037.7,031.2,015.1,0000.0,0004.32,0011.41,0003.30
2024-06-04 02:32:00,SystemResetWarning,0820.8,4.99,000.00,029.5,028.6,000.0,037.7,031.2,015.1,0000.0,0004.30,0010.70,0003.30
2024-06-04 02:33:00,SystemResetWarning,0820.8,5.00,000.00,029.5,028.8,000.0,037.7,031.3,015.0,0000.0,0004.32,0011.40,0003.29
2024-06-04 02:34:00,SystemResetWarning,0820.8,5.01,000.00,029.6,028.9,000.0,037.7,031.4,015.0,0000.0,0004.35,0011.50,0003.29
2024-06-04 02:35:00,SystemResetWarning,0820.8,5.00,000.00,029.7,029.1,000.0,037.7,031.5,015.1,0000.0,0004.34,0011.31,0003.30
2024-06-04 02:36:00,SystemResetWarning,0820.8,5.00,000.00,029.7,029.2,000.0,037.8,031.5,015.0,0000.0,0004.33,0011.17,0003.29
2024-06-04 02:37:00,SystemResetWarning,0820.8,4.99,000.00,029.8,029.3,000.0,037.8,031.6,015.0,0000.0,0004.34,0011.41,0003.29
2024-06-04 02:38:00,SystemResetWarning,0820.8,4.99,000.00,029.9,029.4,000.0,037.9,031.7,014.9,0000.0,0004.34,0011.43,0003.30
2024-06-04 02:39:00,SystemResetWarning,0820.8,5.00,000.00,029.9,029.4,000.0,037.9,031.7,014.9,0000.0,0004.37,0011.53,0003.30
2024-06-04 02:40:00,SystemResetWarning,0820.8,5.00,000.00,029.7,027.5,000.0,038.0,030.8,014.9,0000.0,0004.40,0011.94,0003.30
2024-06-04 02:41:00,SystemResetWarning,0820.8,5.01,000.00,029.4,026.5,000.0,038.0,030.2,015.3,0000.0,0004.41,0012.52,0003.31
2024-06-04 02:42:00,SystemResetWarning,0820.8,5.01,000.00,029.2,026.8,000.0,038.0,030.3,015.4,0000.0,0004.43,0012.95,0003.32
2024-06-04 02:43:00,SystemResetWarning,0820.8,5.00,000.00,029.2,027.2,000.0,037.8,030.5,015.5,0000.0,0004.43,0013.76,0003.33
2024-06-04 02:44:00,SystemResetWarning,0820.8,4.99,000.00,029.3,027.5,000.0,037.8,030.8,015.4,0000.0,0004.39,0013.14,0003.34
2024-06-04 02:45:00,SystemResetWarning,0821.2,5.01,000.00,029.3,027.9,000.0,037.7,030.9,015.4,0000.0,0004.39,0014.20,0003.34
2024-06-04 02:46:00,SystemResetWarning,0821.0,5.01,000.00,029.4,028.1,000.0,037.7,031.0,015.4,0000.0,0004.39,0014.20,0003.34
2024-06-04 02:47:00,SystemResetWarning,0821.1,5.00,000.00,029.4,028.4,000.0,037.7,031.2,015.5,0000.0,0004.41,0014.02,0003.34
2024-06-04 02:48:00,SystemResetWarning,0821.1,5.00,000.00,029.5,028.6,000.0,037.7,031.2,015.4,0000.0,0004.41,0013.68,0003.35
2024-06-04 02:49:00,SystemResetWarning,0821.2,5.00,000.00,029.5,028.8,000.0,037.7,031.3,015.3,0000.0,0004.37,0014.29,0003.35
2024-06-04 02:50:00,SystemResetWarning,0821.2,5.00,000.00,029.6,028.9,000.0,037.7,031.4,015.3,0000.0,0004.34,0014.28,0003.34
2024-06-04 02:51:00,SystemResetWarning,0821.1,5.00,000.00,029.7,029.1,000.0,037.8,031.5,015.2,0000.0,0004.28,0013.68,0003.34
2024-06-04 02:52:00,SystemResetWarning,0821.2,5.00,000.00,029.7,029.2,000.0,037.8,031.5,015.1,0000.0,0004.24,0013.04,0003.32
2024-06-04 02:53:00,SystemResetWarning,0821.2,5.00,000.00,029.8,029.3,000.0,037.8,031.6,015.1,0000.0,0004.20,0012.53,0003.32
2024-06-04 02:54:00,SystemResetWarning,0821.3,5.00,000.00,029.9,029.4,000.0,037.8,031.7,015.1,0000.0,0004.22,0012.10,0003.32
2024-06-04 02:55:00,SystemResetWarning,0821.3,4.99,000.00,029.9,029.4,000.0,037.9,031.7,015.1,0000.0,0004.23,0011.48,0003.32
2024-06-04 02:56:00,SystemResetWarning,0821.3,4.99,000.00,030.0,029.5,000.0,037.9,031.7,015.1,0000.0,0004.19,0010.36,0003.31
2024-06-04 02:57:00,SystemResetWarning,0821.2,5.00,000.00,029.8,027.8,000.0,038.0,030.8,015.1,0000.0,0004.18,0010.24,0003.31
2024-06-04 02:58:00,SystemResetWarning,0821.1,5.01,000.00,029.4,026.4,000.0,038.1,030.2,015.4,0000.0,0004.18,0010.25,0003.31
2024-06-04 02:59:00,SystemResetWarning,0821.2,5.01,000.00,029.3,026.7,000.0,038.0,030.3,015.5,0000.0,0004.17,0010.19,0003.32
